| time (UTC) | temp F | wind direction | speed MPH | gust MPH | rain 1hr in | rain 24hr in | rain mn in | humidity % | barometer mb |
| 20260504001352 | 48 | 190 | 2.0 | 2.0 | 0.00 | 0.00 | 0.00 | 62 | 979.5 |
| 20260504000848 | 49 | 140 | 2.0 | 2.0 | 0.00 | 0.00 | 0.00 | 63 | 979.3 |
| 20260504000346 | 50 | 133 | 1.0 | 1.0 | 0.00 | 0.00 | 0.00 | 57 | 979.3 |
| 20260503235843 | 51 | 175 | 3.0 | 3.0 | 0.00 | 0.00 | 0.00 | 55 | 979.5 |
| 20260503235341 | 52 | 182 | 3.0 | 3.0 | 0.00 | 0.00 | 0.00 | 49 | 979.4 |
| 20260503234838 | 53 | 176 | 0.0 | 1.0 | 0.00 | 0.00 | 0.00 | 49 | 979.2 |
| 20260503234336 | 53 | 178 | 3.0 | 3.0 | 0.00 | 0.00 | 0.00 | 47 | 979.2 |
| 20260503233833 | 55 | 173 | 0.0 | 0.0 | 0.00 | 0.00 | 0.00 | 46 | 979.3 |
| 20260503233329 | 56 | 103 | 1.0 | 1.0 | 0.00 | 0.00 | 0.00 | 31 | 979.3 |
| 20260503232826 | 55 | 148 | 0.0 | 0.0 | 0.00 | 0.00 | 0.00 | 40 | 979.0 |
| 20260503232323 | 57 | 103 | 1.0 | 1.0 | 0.00 | 0.00 | 0.00 | 32 | 979.3 |
| 20260503231821 | 59 | 194 | 1.0 | 1.0 | 0.00 | 0.00 | 0.00 | 29 | 979.2 |
| 20260503231318 | 59 | 202 | 0.0 | 0.0 | 0.00 | 0.00 | 0.00 | 31 | 979.1 |
| 20260503230813 | 59 | 167 | 1.0 | 1.0 | 0.00 | 0.00 | 0.00 | 30 | 979.0 |
| 20260503230311 | 59 | 179 | 1.0 | 1.0 | 0.00 | 0.00 | 0.00 | 31 | 979.0 |
| 20260503225809 | 59 | 187 | 1.0 | 1.0 | 0.00 | 0.00 | 0.00 | 33 | 979.2 |
| 20260503225304 | 60 | 191 | 1.0 | 1.0 | 0.00 | 0.00 | 0.00 | 35 | 979.1 |
| 20260503224800 | 60 | 175 | 0.0 | 0.0 | 0.00 | 0.00 | 0.00 | 31 | 979.1 |
| 20260503224258 | 60 | 111 | 3.0 | 3.0 | 0.00 | 0.00 | 0.00 | 35 | 979.2 |
| 20260503223755 | 61 | 171 | 1.0 | 1.0 | 0.00 | 0.00 | 0.00 | 26 | 979.3 |
| 20260503223253 | 61 | 188 | 2.0 | 3.0 | 0.00 | 0.00 | 0.00 | 28 | 978.8 |
| 20260503222749 | 61 | 54 | 1.0 | 1.0 | 0.00 | 0.00 | 0.00 | 28 | 979.1 |
| 20260503222247 | 61 | 59 | 0.0 | 1.0 | 0.00 | 0.00 | 0.00 | 28 | 979.1 |
| 20260503221745 | 61 | 187 | 2.0 | 2.0 | 0.00 | 0.00 | 0.00 | 27 | 979.1 |
| 20260503221243 | 62 | 96 | 2.0 | 2.0 | 0.00 | 0.00 | 0.00 | 26 | 979.1 |
| 20260503220739 | 61 | 306 | 0.0 | 0.0 | 0.00 | 0.00 | 0.00 | 28 | 979.0 |
| 20260503220236 | 61 | 185 | 0.0 | 1.0 | 0.00 | 0.00 | 0.00 | 26 | 979.0 |
| 20260503215733 | 62 | 175 | 2.0 | 2.0 | 0.00 | 0.00 | 0.00 | 28 | 979.0 |
| 20260503215230 | 62 | 312 | 1.0 | 1.0 | 0.00 | 0.00 | 0.00 | 24 | 979.0 |
| 20260503214728 | 63 | 184 | 4.0 | 6.0 | 0.00 | 0.00 | 0.00 | 25 | 979.3 |
| 20260503214224 | 63 | 67 | 1.0 | 2.0 | 0.00 | 0.00 | 0.00 | 25 | 979.0 |
| 20260503213723 | 63 | 178 | 1.0 | 3.0 | 0.00 | 0.00 | 0.00 | 23 | 979.1 |
| 20260503213219 | 62 | 76 | 1.0 | 2.0 | 0.00 | 0.00 | 0.00 | 27 | 979.0 |
| 20260503212716 | 62 | 185 | 6.0 | 7.0 | 0.00 | 0.00 | 0.00 | 25 | 979.1 |
| 20260503212214 | 63 | 184 | 3.0 | 3.0 | 0.00 | 0.00 | 0.00 | 24 | 979.2 |
| 20260503211712 | 63 | 211 | 2.0 | 2.0 | 0.00 | 0.00 | 0.00 | 25 | 979.0 |
| 20260503211207 | 62 | 178 | 7.0 | 8.0 | 0.00 | 0.00 | 0.00 | 25 | 979.2 |
| 20260503210703 | 63 | 309 | 2.0 | 3.0 | 0.00 | 0.00 | 0.00 | 26 | 979.2 |
| 20260503210200 | 63 | 204 | 4.0 | 4.0 | 0.00 | 0.00 | 0.00 | 29 | 979.3 |
| 20260503205655 | 63 | 187 | 2.0 | 3.0 | 0.00 | 0.00 | 0.00 | 27 | 979.2 |
| 20260503205152 | 63 | 259 | 2.0 | 3.0 | 0.00 | 0.00 | 0.00 | 24 | 979.3 |
| 20260503204649 | 62 | 191 | 3.0 | 3.0 | 0.00 | 0.00 | 0.00 | 25 | 979.3 |
| 20260503204147 | 62 | 198 | 2.0 | 3.0 | 0.00 | 0.00 | 0.00 | 27 | 979.6 |
| 20260503203643 | 62 | 170 | 4.0 | 6.0 | 0.00 | 0.00 | 0.00 | 29 | 979.6 |
| 20260503203141 | 61 | 15 | 4.0 | 7.0 | 0.00 | 0.00 | 0.00 | 26 | 979.5 |
| 20260503202638 | 62 | 78 | 4.0 | 6.0 | 0.00 | 0.00 | 0.00 | 27 | 979.6 |
| 20260503202136 | 61 | 63 | 4.0 | 6.0 | 0.00 | 0.00 | 0.00 | 29 | 979.7 |
| 20260503201634 | 62 | 71 | 4.0 | 6.0 | 0.00 | 0.00 | 0.00 | 28 | 979.6 |
| 20260503201131 | 61 | 120 | 0.0 | 1.0 | 0.00 | 0.00 | 0.00 | 27 | 979.9 |
| 20260503200627 | 61 | 47 | 3.0 | 3.0 | 0.00 | 0.00 | 0.00 | 26 | 979.8 |
| 20260503200124 | 62 | 196 | 6.0 | 9.0 | 0.00 | 0.00 | 0.00 | 28 | 979.8 |
| 20260503195621 | 61 | 178 | 3.0 | 4.0 | 0.00 | 0.00 | 0.00 | 25 | 979.7 |
| 20260503195118 | 62 | 106 | 6.0 | 8.0 | 0.00 | 0.00 | 0.00 | 26 | 980.1 |
| 20260503194615 | 61 | 144 | 2.0 | 3.0 | 0.00 | 0.00 | 0.00 | 30 | 980.0 |
| 20260503194109 | 61 | 95 | 4.0 | 7.0 | 0.00 | 0.00 | 0.00 | 27 | 980.3 |
| 20260503193607 | 60 | 170 | 7.0 | 9.0 | 0.00 | 0.00 | 0.00 | 28 | 980.3 |
| 20260503193102 | 61 | 192 | 5.0 | 7.0 | 0.00 | 0.00 | 0.00 | 26 | 980.3 |
| 20260503192558 | 60 | 125 | 1.0 | 1.0 | 0.00 | 0.00 | 0.00 | 28 | 980.4 |
| 20260503192054 | 60 | 175 | 11.0 | 15.0 | 0.00 | 0.00 | 0.00 | 26 | 980.2 |
| 20260503191551 | 60 | 170 | 2.0 | 2.0 | 0.00 | 0.00 | 0.00 | 28 | 980.3 |
| 20260503191048 | 61 | 184 | 0.0 | 0.0 | 0.00 | 0.00 | 0.00 | 25 | 980.3 |
| 20260503190544 | 61 | 277 | 3.0 | 4.0 | 0.00 | 0.00 | 0.00 | 26 | 980.4 |
| 20260503190042 | 61 | 184 | 2.0 | 4.0 | 0.00 | 0.00 | 0.00 | 29 | 980.6 |
| 20260503185538 | 58 | 229 | 6.0 | 8.0 | 0.00 | 0.00 | 0.00 | 27 | 980.8 |
| 20260503185038 | 60 | 243 | 9.0 | 13.0 | 0.00 | 0.00 | 0.00 | 27 | 981.0 |
| 20260503184534 | 59 | 32 | 2.0 | 3.0 | 0.00 | 0.00 | 0.00 | 29 | 980.9 |
| 20260503184031 | 59 | 219 | 4.0 | 6.0 | 0.00 | 0.00 | 0.00 | 26 | 981.0 |
| 20260503183528 | 59 | 184 | 6.0 | 8.0 | 0.00 | 0.00 | 0.00 | 29 | 980.9 |
| 20260503183025 | 58 | 181 | 7.0 | 8.0 | 0.00 | 0.00 | 0.00 | 28 | 981.1 |
| 20260503182523 | 60 | 103 | 2.0 | 3.0 | 0.00 | 0.00 | 0.00 | 28 | 980.9 |
| 20260503182021 | 59 | 171 | 9.0 | 13.0 | 0.00 | 0.00 | 0.00 | 28 | 981.2 |
| 20260503181518 | 58 | 161 | 5.0 | 7.0 | 0.00 | 0.00 | 0.00 | 29 | 981.2 |
| 20260503181013 | 59 | 303 | 5.0 | 8.0 | 0.00 | 0.00 | 0.00 | 27 | 981.1 |
| 20260503180511 | 57 | 300 | 3.0 | 4.0 | 0.00 | 0.00 | 0.00 | 32 | 981.2 |
| 20260503180008 | 57 | 185 | 7.0 | 10.0 | 0.00 | 0.00 | 0.00 | 29 | 981.2 |
| 20260503175506 | 58 | 190 | 12.0 | 15.0 | 0.00 | 0.00 | 0.00 | 29 | 981.3 |
| 20260503175002 | 61 | 271 | 1.0 | 1.0 | 0.00 | 0.00 | 0.00 | 30 | 981.4 |
| 20260503174500 | 59 | 294 | 0.0 | 1.0 | 0.00 | 0.00 | 0.00 | 31 | 981.3 |
| 20260503173955 | 59 | 244 | 4.0 | 4.0 | 0.00 | 0.00 | 0.00 | 31 | 981.4 |
| 20260503173451 | 57 | 49 | 0.0 | 0.0 | 0.00 | 0.00 | 0.00 | 31 | 981.4 |
| 20260503172948 | 57 | 181 | 10.0 | 13.0 | 0.00 | 0.00 | 0.00 | 32 | 981.4 |
| 20260503172446 | 58 | 300 | 3.0 | 3.0 | 0.00 | 0.00 | 0.00 | 31 | 981.3 |
| 20260503171942 | 59 | 67 | 3.0 | 4.0 | 0.00 | 0.00 | 0.00 | 32 | 981.5 |
| 20260503171439 | 59 | 13 | 0.0 | 1.0 | 0.00 | 0.00 | 0.00 | 31 | 981.7 |
| 20260503170936 | 57 | 198 | 2.0 | 2.0 | 0.00 | 0.00 | 0.00 | 32 | 981.6 |
| 20260503170432 | 56 | 17 | 2.0 | 2.0 | 0.00 | 0.00 | 0.00 | 33 | 982.0 |
| 20260503150825 | 50 | 311 | 4.0 | 6.0 | 0.00 | 0.00 | 0.00 | 41 | 983.1 |
| 20260503150321 | 50 | 183 | 7.0 | 9.0 | 0.00 | 0.00 | 0.00 | 42 | 983.2 |
| 20260503140245 | 48 | 184 | 4.0 | 10.0 | 0.00 | 0.00 | 0.00 | 45 | 983.0 |
| 20260503131215 | 46 | 171 | 5.0 | 10.0 | 0.00 | 0.00 | 0.00 | 49 | 983.2 |
| 20260503130713 | 45 | 186 | 6.0 | 6.0 | 0.00 | 0.00 | 0.00 | 46 | 983.0 |
| 20260503130209 | 45 | 216 | 3.0 | 3.0 | 0.00 | 0.00 | 0.00 | 49 | 983.3 |
| 20260503120135 | 43 | 193 | 5.0 | 6.0 | 0.00 | 0.00 | 0.00 | 55 | 982.9 |
| 20260503110602 | 37 | 183 | 0.0 | 0.0 | 0.00 | 0.00 | 0.00 | 82 | 982.3 |
| 20260503090449 | 41 | 172 | 0.0 | 0.0 | 0.00 | 0.00 | 0.00 | 64 | 980.7 |
| 20260503081416 | 40 | 175 | 2.0 | 3.0 | 0.00 | 0.00 | 0.00 | 66 | 980.3 |
| 20260503080913 | 40 | 182 | 4.0 | 4.0 | 0.00 | 0.00 | 0.00 | 72 | 980.1 |
| 20260503080410 | 38 | 177 | 4.0 | 4.0 | 0.00 | 0.00 | 0.00 | 76 | 980.2 |
| 20260503072846 | 41 | 132 | 2.0 | 2.0 | 0.00 | 0.00 | 0.00 | 60 | 980.0 |
| 20260503072343 | 41 | 182 | 2.0 | 3.0 | 0.00 | 0.00 | 0.00 | 59 | 979.9 |
| 20260503071839 | 41 | 178 | 3.0 | 3.0 | 0.00 | 0.00 | 0.00 | 58 | 979.9 |
| 20260503071337 | 42 | 103 | 2.0 | 3.0 | 0.00 | 0.00 | 0.00 | 60 | 979.9 |
| 20260503070833 | 41 | 81 | 2.0 | 2.0 | 0.00 | 0.00 | 0.00 | 58 | 979.8 |
| 20260503070331 | 42 | 214 | 4.0 | 6.0 | 0.00 | 0.00 | 0.00 | 57 | 979.9 |
| 20260503060256 | 41 | 183 | 3.0 | 3.0 | 0.00 | 0.00 | 0.00 | 61 | 979.8 |
| 20260503054743 | 40 | 194 | 5.0 | 8.0 | 0.00 | 0.00 | 0.00 | 75 | 979.7 |
| 20260503054240 | 39 | 178 | 5.0 | 6.0 | 0.00 | 0.00 | 0.00 | 80 | 979.8 |
| 20260503053738 | 38 | 186 | 4.0 | 4.0 | 0.00 | 0.00 | 0.00 | 81 | 979.7 |
| 20260503053237 | 38 | 185 | 0.0 | 1.0 | 0.00 | 0.00 | 0.00 | 84 | 979.6 |
| 20260503052732 | 39 | 185 | 3.0 | 3.0 | 0.00 | 0.00 | 0.00 | 82 | 979.6 |
| 20260503052229 | 38 | 184 | 0.0 | 0.0 | 0.00 | 0.00 | 0.00 | 82 | 979.8 |
| 20260503051724 | 38 | 178 | 2.0 | 2.0 | 0.00 | 0.00 | 0.00 | 82 | 979.8 |
| 20260503051222 | 37 | 173 | 3.0 | 3.0 | 0.00 | 0.00 | 0.00 | 82 | 979.7 |
| 20260503050718 | 39 | 188 | 4.0 | 4.0 | 0.00 | 0.00 | 0.00 | 81 | 979.5 |
| 20260503050215 | 39 | 180 | 3.0 | 3.0 | 0.00 | 0.00 | 0.00 | 79 | 979.7 |
| 20260503045713 | 39 | 186 | 3.0 | 3.0 | 0.00 | 0.00 | 0.00 | 80 | 979.6 |
| 20260503045210 | 39 | 178 | 3.0 | 3.0 | 0.00 | 0.00 | 0.00 | 77 | 979.6 |
| 20260503044706 | 39 | 185 | 4.0 | 4.0 | 0.00 | 0.00 | 0.00 | 77 | 979.6 |
| 20260503044204 | 39 | 192 | 3.0 | 4.0 | 0.00 | 0.00 | 0.00 | 77 | 979.7 |
| 20260503043700 | 40 | 179 | 4.0 | 4.0 | 0.00 | 0.00 | 0.00 | 71 | 979.8 |
| 20260503043158 | 40 | 183 | 5.0 | 6.0 | 0.00 | 0.00 | 0.00 | 72 | 979.8 |
| 20260503042653 | 40 | 180 | 4.0 | 4.0 | 0.00 | 0.00 | 0.00 | 76 | 979.9 |
| 20260503042150 | 40 | 182 | 4.0 | 4.0 | 0.00 | 0.00 | 0.00 | 76 | 979.8 |
| 20260503041646 | 41 | 175 | 3.0 | 3.0 | 0.00 | 0.00 | 0.00 | 70 | 979.5 |
| 20260503041144 | 39 | 175 | 4.0 | 4.0 | 0.00 | 0.00 | 0.00 | 71 | 979.7 |
| 20260503040642 | 39 | 187 | 3.0 | 3.0 | 0.00 | 0.00 | 0.00 | 78 | 979.6 |
| 20260503040139 | 42 | 175 | 1.0 | 1.0 | 0.00 | 0.00 | 0.00 | 70 | 979.8 |
| 20260503035635 | 42 | 172 | 4.0 | 4.0 | 0.00 | 0.00 | 0.00 | 60 | 979.7 |
| 20260503035133 | 43 | 167 | 5.0 | 6.0 | 0.00 | 0.00 | 0.00 | 60 | 979.6 |
| 20260503034631 | 43 | 198 | 7.0 | 7.0 | 0.00 | 0.00 | 0.00 | 60 | 979.6 |
| 20260503034128 | 43 | 184 | 6.0 | 7.0 | 0.00 | 0.00 | 0.00 | 61 | 979.5 |
| 20260503033624 | 43 | 166 | 7.0 | 8.0 | 0.00 | 0.00 | 0.00 | 59 | 979.5 |
| 20260503033122 | 43 | 167 | 4.0 | 4.0 | 0.00 | 0.00 | 0.00 | 61 | 979.5 |
| 20260503032620 | 40 | 172 | 4.0 | 6.0 | 0.00 | 0.00 | 0.00 | 66 | 979.5 |
| 20260503032119 | 43 | 289 | 0.0 | 1.0 | 0.00 | 0.00 | 0.00 | 63 | 979.2 |
| 20260503031616 | 41 | 189 | 4.0 | 4.0 | 0.00 | 0.00 | 0.00 | 60 | 979.3 |
| 20260503031113 | 41 | 144 | 1.0 | 1.0 | 0.00 | 0.00 | 0.00 | 69 | 979.3 |
| 20260503030609 | 42 | 142 | 2.0 | 2.0 | 0.00 | 0.00 | 0.00 | 66 | 979.4 |
| 20260503030106 | 43 | 113 | 0.0 | 0.0 | 0.00 | 0.00 | 0.00 | 60 | 979.3 |
| 20260503025603 | 42 | 238 | 1.0 | 1.0 | 0.00 | 0.00 | 0.00 | 64 | 979.3 |
| 20260503025101 | 43 | 208 | 0.0 | 0.0 | 0.00 | 0.00 | 0.00 | 62 | 979.3 |
| 20260503024556 | 44 | 178 | 0.0 | 0.0 | 0.00 | 0.00 | 0.00 | 59 | 979.5 |
| 20260503024054 | 45 | 163 | 0.0 | 0.0 | 0.00 | 0.00 | 0.00 | 55 | 979.2 |
| 20260503023550 | 45 | 190 | 2.0 | 2.0 | 0.00 | 0.00 | 0.00 | 52 | 979.4 |
| 20260503023048 | 46 | 187 | 0.0 | 0.0 | 0.00 | 0.00 | 0.00 | 50 | 979.3 |
| 20260503022544 | 46 | 176 | 3.0 | 3.0 | 0.00 | 0.00 | 0.00 | 51 | 979.3 |
| 20260503022039 | 46 | 216 | 2.0 | 2.0 | 0.00 | 0.00 | 0.00 | 51 | 979.2 |
| 20260503021536 | 47 | 104 | 2.0 | 2.0 | 0.00 | 0.00 | 0.00 | 49 | 979.1 |
| 20260503021033 | 47 | 181 | 0.0 | 0.0 | 0.00 | 0.00 | 0.00 | 49 | 979.2 |
| 20260503020530 | 47 | 176 | 6.0 | 7.0 | 0.00 | 0.00 | 0.00 | 48 | 979.2 |
| 20260503020027 | 47 | 89 | 2.0 | 2.0 | 0.00 | 0.00 | 0.00 | 47 | 979.1 |
| 20260503015523 | 47 | 207 | 1.0 | 1.0 | 0.00 | 0.00 | 0.00 | 48 | 979.2 |
| 20260503015020 | 47 | 184 | 2.0 | 2.0 | 0.00 | 0.00 | 0.00 | 49 | 979.1 |
| 20260503014516 | 48 | 152 | 0.0 | 0.0 | 0.00 | 0.00 | 0.00 | 49 | 979.2 |
| 20260503014015 | 48 | 260 | 1.0 | 1.0 | 0.00 | 0.00 | 0.00 | 47 | 979.0 |
| 20260503013512 | 48 | 218 | 1.0 | 1.0 | 0.00 | 0.00 | 0.00 | 46 | 979.0 |
| 20260503013009 | 48 | 165 | 0.0 | 0.0 | 0.00 | 0.00 | 0.00 | 46 | 978.9 |
| 20260503012507 | 48 | 177 | 0.0 | 0.0 | 0.00 | 0.00 | 0.00 | 46 | 978.9 |
| 20260503012003 | 48 | 223 | 4.0 | 7.0 | 0.00 | 0.00 | 0.00 | 46 | 978.9 |
| 20260503011459 | 49 | 185 | 0.0 | 0.0 | 0.00 | 0.00 | 0.00 | 45 | 978.8 |
| 20260503010956 | 49 | 220 | 3.0 | 4.0 | 0.00 | 0.00 | 0.00 | 44 | 978.8 |
| 20260503010453 | 49 | 164 | 2.0 | 3.0 | 0.00 | 0.00 | 0.00 | 46 | 978.6 |
| 20260503005950 | 49 | 106 | 4.0 | 4.0 | 0.00 | 0.00 | 0.00 | 44 | 978.6 |
| 20260503005447 | 49 | 169 | 1.0 | 2.0 | 0.00 | 0.00 | 0.00 | 46 | 978.7 |
| 20260503004944 | 49 | 190 | 3.0 | 6.0 | 0.00 | 0.00 | 0.00 | 42 | 978.4 |
| 20260503004441 | 49 | 176 | 6.0 | 7.0 | 0.00 | 0.00 | 0.00 | 43 | 978.4 |
| 20260503003939 | 50 | 196 | 7.0 | 8.0 | 0.00 | 0.00 | 0.00 | 42 | 978.2 |
| 20260503003435 | 50 | 222 | 1.0 | 3.0 | 0.00 | 0.00 | 0.00 | 44 | 978.3 |
| 20260503002932 | 50 | 178 | 5.0 | 7.0 | 0.00 | 0.00 | 0.00 | 43 | 978.0 |
| 20260503002429 | 50 | 158 | 4.0 | 6.0 | 0.00 | 0.00 | 0.00 | 42 | 978.0 |
| 20260503001926 | 50 | 219 | 5.0 | 8.0 | 0.00 | 0.00 | 0.00 | 43 | 978.3 |